User: anonymous   Login
Location: Prairie State College
(41.5244°N, 87.6382°W)
Time: 15:35:13
(UTC-05:00)
Language:

Cosmos 1943 - Orbit

View from above orbital plane
View from above orbital plane
View from above satellite
View from above satellite

Ground track
Ground track

The orbit data is extracted from the following two-line orbital elements,

1 19119U 88039A   17142.59323799 +.00000283 +00000-0 +17042-3 0  9991
2 19119 071.0014 155.5308 0009419 098.4949 039.9423 14.15092467498201
Epoch (UTC): 22 May 2017 14:14:15
Eccentricity: 0.0009419
inclination: 71.0014°
perigee height: 835 km
apogee height: 849 km
right ascension of ascending node: 155.5308°
argument of perigee: 98.4949°
revolutions per day: 14.15092467
mean anomaly at epoch: 39.9423°
orbit number at epoch: 49820

The dashed part of the orbit path shows where the satellite is in the earth's shadow,  

DLR